TimeMST,TemperatureF,Dew PointF,Humidity,Sea Level PressureIn,VisibilityMPH,Wind Direction,Wind SpeedMPH,Gust SpeedMPH,PrecipitationIn,Events,Conditions,WindDirDegrees,DateUTC
12:56 AM,19.9,9.0,62,30.35,10.0,Calm,Calm,-,N/A,,Clear,0,2013-01-21 07:56:00
1:56 AM,17.1,8.1,68,30.36,10.0,South,3.5,-,N/A,,Clear,180,2013-01-21 08:56:00
2:56 AM,18.0,9.0,68,30.35,10.0,NNE,3.5,-,N/A,,Clear,20,2013-01-21 09:56:00
3:56 AM,12.0,5.0,73,30.36,10.0,Calm,Calm,-,N/A,,Clear,0,2013-01-21 10:56:00
4:56 AM,10.0,3.0,73,30.37,10.0,Calm,Calm,-,N/A,,Clear,0,2013-01-21 11:56:00
5:56 AM,12.0,5.0,73,30.43,10.0,ESE,3.5,-,N/A,,Clear,120,2013-01-21 12:56:00
6:56 AM,12.0,5.0,73,30.46,10.0,SE,4.6,-,N/A,,Clear,130,2013-01-21 13:56:00
7:56 AM,14.0,8.1,77,30.48,10.0,Calm,Calm,-,N/A,,Clear,0,2013-01-21 14:56:00
8:56 AM,21.0,10.9,65,30.49,10.0,ESE,8.1,-,N/A,,Clear,120,2013-01-21 15:56:00
9:56 AM,28.0,14.0,56,30.48,10.0,ESE,3.5,-,N/A,,Clear,110,2013-01-21 16:56:00
10:56 AM,35.1,15.1,44,30.47,10.0,Calm,Calm,-,N/A,,Clear,0,2013-01-21 17:56:00
11:56 AM,39.0,14.0,36,30.45,10.0,Variable,3.5,-,N/A,,Clear,0,2013-01-21 18:56:00
12:56 PM,43.0,14.0,31,30.39,10.0,Variable,3.5,-,N/A,,Clear,0,2013-01-21 19:56:00
1:56 PM,46.0,14.0,28,30.35,10.0,North,3.5,-,N/A,,Clear,10,2013-01-21 20:56:00
2:56 PM,48.0,12.9,24,30.33,10.0,Calm,Calm,-,N/A,,Clear,0,2013-01-21 21:56:00
3:56 PM,48.9,12.0,23,30.33,10.0,NW,3.5,-,N/A,,Clear,320,2013-01-21 22:56:00
4:56 PM,46.9,12.9,25,30.34,10.0,WNW,6.9,-,N/A,,Clear,300,2013-01-21 23:56:00
5:56 PM,37.0,10.0,33,30.38,10.0,WNW,3.5,-,N/A,,Clear,300,2013-01-22 00:56:00
6:56 PM,28.9,6.1,38,30.42,10.0,West,4.6,-,N/A,,Clear,280,2013-01-22 01:56:00
7:56 PM,26.1,6.1,43,30.43,10.0,WSW,5.8,-,N/A,,Clear,250,2013-01-22 02:56:00
8:56 PM,23.0,6.1,48,30.43,10.0,WSW,4.6,-,N/A,,Clear,240,2013-01-22 03:56:00
9:56 PM,25.0,7.0,46,30.40,10.0,Calm,Calm,-,N/A,,Clear,0,2013-01-22 04:56:00
10:56 PM,21.0,7.0,55,30.41,10.0,SSW,4.6,-,N/A,,Clear,210,2013-01-22 05:56:00
11:56 PM,23.0,8.1,53,30.38,10.0,Calm,Calm,-,N/A,,Clear,0,2013-01-22 06:56:00